QPF
0.00 0.00 0.00 0.00 0.00 0.00 0.00 0.00 0.00 0.00 0.00 0.00 0.00 0.00 0.00 0.00 0.00 0.00 0.00 0.00 0.00 0.00 0.00 0.00 0.05 0.08 0.03 0.07 0.08 0.07 0.03 0.01 0.02 0.01 0.01 0.00 0.01 0.00 0.01 0.01 0.00 0.00 0.00 0.00
0.00 0.00 0.00 0.00 0.00 0.00 0.00 0.00 0.00 0.00 0.00 0.00 0.00 0.00 0.00 0.00 0.00 0.00 0.00 0.00 0.00 0.00 0.00 0.00 0.00 0.00 0.00 0.03 0.09 0.09 0.02 0.01 0.01 0.03 0.06 0.06 0.04 0.02 0.02 0.02 0.00 0.00 0.00 0.00
0.00 0.00 0.00 0.00 0.00 0.00 0.00 0.00 0.00 0.00 0.00 0.00 0.00 0.00 0.00 0.00 0.00 0.00 0.00 0.00 0.00 0.00 0.00 0.00 0.00 0.00 0.00 0.00 0.07 0.16 0.09 0.03 0.01 0.04 0.11 0.11 0.09 0.04 0.02 0.01 0.00 0.00 0.00 0.00
0.00 0.00 0.00 0.00 0.00 0.00 0.00 0.00 0.00 0.00 0.00 0.00 0.00 0.00 0.00 0.00 0.00 0.00 0.00 0.00 0.00 0.00 0.00 0.00 0.00 0.00 0.00 0.01 0.12 0.17 0.16 0.09 0.07 0.08 0.10 0.12 0.12 0.08 0.05 0.03 0.00 0.00 0.00 0.00
0.00 0.00 0.00 0.00 0.00 0.00 0.00 0.00 0.00 0.00 0.00 0.00 0.00 0.00 0.00 0.00 0.00 0.00 0.00 0.00 0.00 0.00 0.00 0.00 0.00 0.00 0.00 0.00 0.02 0.06 0.10 0.10 0.12 0.11 0.09 0.09 0.10 0.09 0.05 0.02 0.01 0.00 0.00 0.00
0.00 0.00 0.00 0.00 0.00 0.00 0.00 0.00 0.00 0.00 0.00 0.00 0.00 0.00 0.00 0.01 0.03 0.01 0.00 0.00 0.00 0.00 0.00 0.00 0.00 0.00 0.01 0.01 0.03 0.03 0.03 0.03 0.07 0.14 0.11 0.08 0.10 0.08 0.03 0.02 0.01 0.00 0.00 0.00
0.00 0.00 0.00 0.00 0.00 0.00 0.00 0.00 0.00 0.00 0.00 0.00 0.00 0.00 0.00 0.04 0.13 0.08 0.05 0.04 0.03 0.00 0.03 0.03 0.02 0.01 0.02 0.02 0.02 0.03 0.06 0.05 0.07 0.10 0.10 0.08 0.05 0.06 0.02 0.01 0.00 0.01 0.01 0.00
0.00 0.00 0.00 0.00 0.00 0.00 0.00 0.00 0.00 0.00 0.00 0.00 0.00 0.00 0.00 0.01 0.09 0.13 0.10 0.09 0.07 0.04 0.04 0.07 0.14 0.15 0.14 0.06 0.10 0.10 0.10 0.09 0.09 0.07 0.07 0.05 0.02 0.01 0.00 0.01 0.02 0.02 0.03 0.02
0.00 0.00 0.00 0.00 0.00 0.00 0.00 0.00 0.00 0.00 0.00 0.00 0.00 0.00 0.00 0.00 0.01 0.06 0.05 0.06 0.05 0.05 0.07 0.09 0.11 0.16 0.06 0.08 0.16 0.13 0.09 0.08 0.09 0.06 0.03 0.01 0.00 0.00 0.01 0.02 0.03 0.03 0.01 0.00
0.00 0.00 0.00 0.00 0.00 0.00 0.00 0.00 0.00 0.00 0.00 0.00 0.00 0.00 0.00 0.00 0.00 0.01 0.01 0.01 0.01 0.01 0.02 0.08 0.10 0.20 0.21 0.14 0.12 0.16 0.12 0.09 0.08 0.06 0.03 0.03 0.03 0.03 0.02 0.01 0.01 0.00 0.00 0.00
0.00 0.00 0.00 0.00 0.00 0.00 0.00 0.00 0.00 0.00 0.00 0.00 0.00 0.00 0.00 0.00 0.00 0.00 0.00 0.00 0.00 0.00 0.00 0.01 0.04 0.06 0.12 0.08 0.12 0.13 0.03 0.03 0.02 0.02 0.02 0.01 0.02 0.01 0.00 0.00 0.00 0.00 0.00 0.00
0.00 0.00 0.00 0.00 0.00 0.00 0.00 0.00 0.00 0.00 0.00 0.00 0.00 0.00 0.00 0.00 0.00 0.00 0.00 0.00 0.00 0.00 0.00 0.00 0.01 0.00 0.00 0.02 0.06 0.03 0.01 0.00 0.00 0.00 0.00 0.00 0.00 0.00 0.00 0.00 0.00 0.00 0.00 0.00
0.00 0.00 0.00 0.00 0.00 0.00 0.00 0.00 0.00 0.00 0.00 0.00 0.00 0.00 0.00 0.00 0.00 0.00 0.00 0.00 0.00 0.00 0.00 0.00 0.00 0.00 0.00 0.00 0.00 0.00 0.00 0.00 0.00 0.00 0.00 0.00 0.00 0.00 0.00 0.00 0.00 0.00 0.00 0.00
0.00 0.00 0.00 0.00 0.00 0.00 0.00 0.00 0.00 0.00 0.00 0.00 0.00 0.00 0.00 0.00 0.00 0.00 0.00 0.00 0.00 0.00 0.00 0.00 0.00 0.00 0.00 0.00 0.00 0.00 0.00 0.00 0.00 0.00 0.00 0.00 0.00 0.00 0.00 0.00 0.00 0.00 0.00 0.00
0.00 0.00 0.00 0.00 0.00 0.00 0.00 0.00 0.00 0.00 0.00 0.00 0.00 0.00 0.00 0.00 0.00 0.00 0.00 0.00 0.00 0.00 0.00 0.00 0.00 0.00 0.00 0.00 0.00 0.00 0.00 0.00 0.00 0.00 0.00 0.00 0.00 0.00 0.00 0.00 0.00 0.00 0.00 0.00
0.00 0.00 0.00 0.00 0.00 0.00 0.00 0.00 0.00 0.00 0.00 0.00 0.00 0.00 0.00 0.00 0.00 0.00 0.00 0.00 0.00 0.00 0.00 0.00 0.00 0.00 0.00 0.00 0.00 0.00 0.00 0.00 0.00 0.00 0.00 0.00 0.00 0.00 0.00 0.00 0.00 0.00 0.00 0.00
0.00 0.00 0.00 0.00 0.00 0.00 0.00 0.00 0.00 0.00 0.00 0.00 0.00 0.00 0.00 0.00 0.00 0.00 0.00 0.00 0.00 0.00 0.00 0.00 0.00 0.00 0.00 0.00 0.00 0.00 0.00 0.00 0.00 0.00 0.00 0.00 0.00 0.00 0.00 0.00 0.00 0.00 0.00 0.00
0.00 0.00 0.00 0.00 0.00 0.00 0.00 0.00 0.00 0.00 0.00 0.00 0.00 0.00 0.00 0.00 0.00 0.00 0.00 0.00 0.00 0.00 0.00 0.00 0.00 0.00 0.00 0.00 0.00 0.00 0.00 0.00 0.00 0.00 0.00 0.00 0.00 0.00 0.00 0.00 0.00 0.00 0.00 0.00
0.00 0.00 0.00 0.00 0.00 0.00 0.00 0.00 0.00 0.00 0.00 0.00 0.00 0.00 0.00 0.00 0.00 0.00 0.00 0.00 0.00 0.00 0.00 0.00 0.00 0.00 0.00 0.00 0.00 0.00 0.00 0.00 0.00 0.00 0.00 0.00 0.00 0.00 0.00 0.00 0.00 0.00 0.00 0.00
0.00 0.00 0.00 0.00 0.00 0.00 0.00 0.00 0.00 0.00 0.00 0.00 0.00 0.00 0.00 0.00 0.00 0.00 0.00 0.00 0.00 0.00 0.00 0.00 0.00 0.00 0.00 0.00 0.00 0.00 0.00 0.00 0.00 0.00 0.00 0.00 0.00 0.00 0.00 0.00 0.00 0.00 0.00 0.00
0.00 0.00 0.00 0.00 0.00 0.00 0.00 0.00 0.00 0.00 0.00 0.00 0.00 0.00 0.00 0.00 0.00 0.00 0.00 0.00 0.00 0.00 0.00 0.00 0.00 0.00 0.00 0.00 0.00 0.00 0.00 0.00 0.00 0.00 0.00 0.00 0.00 0.00 0.00 0.00 0.00 0.00 0.00 0.00
0.00 0.00 0.00 0.00 0.00 0.00 0.00 0.00 0.00 0.00 0.00 0.00 0.00 0.00 0.00 0.00 0.00 0.00 0.00 0.00 0.00 0.00 0.00 0.00 0.00 0.00 0.00 0.00 0.00 0.00 0.00 0.00 0.00 0.00 0.00 0.00 0.00 0.00 0.00 0.00 0.00 0.00 0.00 0.00
0.00 0.00 0.00 0.00 0.00 0.00 0.00 0.00 0.00 0.00 0.00 0.00 0.00 0.00 0.00 0.00 0.00 0.00 0.00 0.00 0.00 0.00 0.00 0.00 0.00 0.00 0.00 0.00 0.00 0.00 0.00 0.00 0.00 0.00 0.00 0.00 0.00 0.00 0.00 0.00 0.00 0.00 0.00 0.00
0.00 0.00 0.00 0.00 0.00 0.00 0.00 0.00 0.00 0.00 0.00 0.00 0.00 0.00 0.00 0.00 0.00 0.00 0.00 0.00 0.00 0.00 0.00 0.00 0.00 0.00 0.00 0.00 0.00 0.00 0.00 0.00 0.00 0.00 0.00 0.00 0.00 0.00 0.00 0.00 0.00 0.00 0.00 0.00
0.00 0.00 0.00 0.00 0.00 0.00 0.00 0.00 0.00 0.00 0.00 0.00 0.00 0.00 0.00 0.00 0.00 0.00 0.00 0.00 0.00 0.00 0.00 0.00 0.00 0.00 0.00 0.00 0.00 0.00 0.00 0.00 0.00 0.00 0.00 0.00 0.00 0.00 0.00 0.00 0.00 0.00 0.00 0.00
0.00 0.00 0.00 0.00 0.00 0.00 0.00 0.00 0.00 0.00 0.00 0.00 0.00 0.00 0.00 0.00 0.00 0.00 0.00 0.00 0.00 0.00 0.00 0.00 0.00 0.00 0.00 0.00 0.00 0.00 0.00 0.00 0.00 0.00 0.00 0.00 0.00 0.00 0.00 0.00 0.00 0.00 0.00 0.00
MSLP
1014.28 1015.01 1015.27 1015.21 1015.13 1015.24 1015.23 1015.10 1014.61 1013.63 1012.73 1012.85 1012.44 1012.04 1011.41 1010.64 1010.39 1010.47 1010.52 1010.18 1009.63 1009.28 1008.24 1008.27 1008.37 1009.13 1009.82 1010.29 1010.74 1011.24 1011.79 1012.92 1013.73 1014.47 1015.35 1016.39 1016.72 1017.03 1017.28 1017.48 1017.81 1018.32 1018.41 1019.15
1014.81 1014.94 1014.58 1014.62 1014.54 1014.71 1014.66 1014.69 1014.13 1013.29 1012.73 1012.68 1012.25 1012.08 1010.98 1010.53 1010.20 1010.15 1010.20 1010.15 1009.80 1009.28 1008.54 1008.15 1008.26 1008.80 1009.45 1010.03 1010.61 1010.96 1011.74 1012.74 1013.15 1013.69 1014.44 1015.26 1016.40 1016.94 1017.18 1017.48 1017.68 1018.27 1018.45 1018.95
1014.98 1014.46 1014.21 1014.40 1014.26 1014.32 1014.26 1014.23 1014.03 1013.77 1012.88 1012.48 1012.90 1012.14 1011.48 1010.80 1010.62 1010.37 1010.51 1010.41 1010.04 1009.54 1008.97 1008.39 1008.03 1008.24 1008.73 1009.44 1010.09 1010.45 1011.11 1012.04 1012.11 1013.53 1014.66 1015.61 1015.92 1016.88 1017.35 1017.67 1017.97 1018.46 1018.85 1019.29
1014.82 1014.19 1014.28 1014.12 1014.17 1014.12 1013.68 1013.46 1014.01 1014.01 1013.75 1014.25 1014.00 1013.79 1012.51 1011.84 1011.18 1011.00 1010.86 1010.68 1010.13 1009.48 1008.59 1007.98 1007.69 1007.74 1008.02 1008.42 1009.22 1010.09 1010.64 1011.59 1012.27 1013.11 1014.40 1015.19 1015.72 1016.16 1016.82 1017.66 1018.55 1018.81 1019.22 1019.37
1014.82 1014.51 1014.36 1014.12 1013.84 1013.92 1013.87 1013.43 1013.96 1014.25 1014.72 1015.31 1015.09 1015.14 1013.48 1012.99 1011.98 1011.46 1010.99 1010.60 1010.00 1009.25 1008.44 1007.34 1007.02 1006.84 1007.04 1008.11 1008.73 1009.45 1010.39 1011.16 1011.63 1012.71 1013.46 1014.66 1015.75 1016.12 1016.83 1018.30 1018.71 1019.04 1019.86 1019.64
1015.28 1014.67 1014.55 1014.11 1013.60 1013.82 1013.76 1013.76 1014.43 1014.81 1015.59 1016.00 1016.28 1016.18 1014.56 1013.65 1013.15 1011.82 1011.24 1010.67 1009.82 1008.88 1007.81 1007.07 1006.96 1007.35 1007.85 1008.51 1009.13 1009.78 1010.37 1010.93 1011.57 1012.51 1013.62 1014.62 1015.29 1016.36 1016.43 1018.00 1019.27 1019.71 1020.11 1019.87
1016.03 1015.01 1014.51 1014.31 1014.21 1014.05 1014.43 1014.93 1016.09 1016.47 1016.97 1017.01 1016.52 1016.24 1015.44 1014.19 1012.26 1012.28 1011.51 1010.86 1009.82 1008.80 1008.14 1007.93 1007.85 1007.93 1008.29 1008.66 1009.38 1010.23 1011.01 1011.84 1012.70 1013.18 1014.12 1015.21 1016.03 1015.83 1016.85 1018.09 1018.23 1019.33 1019.68 1019.62
1017.94 1015.93 1015.16 1014.82 1014.93 1015.16 1015.69 1016.50 1017.86 1018.42 1018.48 1017.70 1016.41 1015.99 1015.37 1014.66 1013.20 1012.52 1011.80 1011.26 1010.45 1009.60 1009.09 1009.11 1008.79 1008.85 1009.12 1009.40 1009.84 1010.54 1011.58 1012.41 1013.16 1013.70 1014.44 1015.04 1015.75 1016.11 1016.62 1016.88 1018.16 1018.66 1018.93 1018.91
1018.14 1016.97 1015.61 1015.09 1015.07 1015.37 1015.87 1017.05 1017.83 1018.22 1018.62 1018.23 1016.84 1015.46 1015.03 1014.64 1013.57 1012.95 1012.55 1011.88 1011.48 1010.99 1010.43 1010.17 1009.88 1009.69 1009.62 1010.07 1010.77 1011.45 1012.14 1012.83 1013.45 1014.15 1014.22 1014.92 1015.69 1016.26 1016.92 1017.15 1017.84 1018.04 1018.15 1018.53
1018.40 1018.12 1016.29 1015.54 1015.36 1015.75 1016.02 1017.09 1017.80 1018.46 1019.04 1018.25 1016.92 1016.16 1015.61 1014.74 1014.54 1013.93 1013.47 1013.31 1013.06 1012.54 1011.72 1011.44 1011.18 1010.91 1010.72 1010.81 1011.24 1011.83 1012.36 1013.00 1013.80 1013.55 1014.19 1014.96 1016.01 1016.52 1017.12 1017.57 1018.07 1018.18 1018.36 1018.66
1018.29 1018.88 1017.18 1016.29 1016.04 1016.39 1016.65 1017.10 1017.75 1018.48 1018.70 1018.68 1017.83 1016.53 1015.80 1015.69 1015.51 1014.88 1014.69 1014.52 1014.22 1013.61 1013.23 1012.77 1012.34 1012.15 1011.90 1012.19 1012.32 1012.89 1013.54 1013.76 1014.52 1014.79 1015.31 1015.85 1016.53 1017.03 1017.34 1017.89 1018.30 1018.49 1018.65 1019.01
1018.40 1019.08 1018.88 1017.40 1016.46 1016.42 1016.60 1017.12 1017.77 1018.54 1018.64 1018.45 1018.04 1016.64 1015.90 1015.88 1015.61 1015.46 1015.33 1015.25 1015.10 1014.74 1014.37 1013.88 1013.56 1013.68 1013.61 1013.81 1014.25 1014.39 1014.51 1015.02 1015.35 1015.75 1016.19 1016.67 1017.10 1017.56 1018.01 1018.87 1019.14 1019.48 1019.78 1020.00
1018.55 1019.28 1019.25 1017.78 1017.38 1016.88 1017.04 1017.29 1017.67 1017.89 1018.28 1018.24 1018.07 1016.41 1015.90 1015.71 1015.85 1015.84 1015.83 1015.71 1015.73 1015.45 1015.14 1014.66 1014.07 1015.06 1015.22 1015.34 1015.55 1015.80 1015.88 1016.08 1016.35 1016.71 1017.20 1017.97 1018.41 1018.70 1019.27 1019.86 1020.28 1020.50 1020.48 1020.73
1018.61 1019.62 1019.87 1019.63 1018.73 1018.37 1017.86 1017.31 1017.44 1017.62 1017.87 1017.57 1017.26 1016.45 1015.76 1015.94 1015.96 1016.13 1016.22 1016.11 1016.11 1016.01 1015.50 1015.17 1015.64 1016.24 1016.34 1016.54 1016.69 1016.82 1017.15 1017.32 1017.68 1017.95 1018.60 1019.36 1019.81 1020.01 1020.40 1020.72 1021.04 1021.22 1021.24 1021.45
1019.22 1019.95 1019.94 1019.33 1018.76 1018.41 1017.67 1017.19 1016.83 1017.05 1016.72 1016.91 1016.34 1016.28 1015.86 1016.01 1016.02 1016.15 1016.43 1016.58 1016.50 1016.52 1016.47 1016.88 1017.22 1017.62 1017.80 1017.89 1018.13 1018.30 1018.45 1018.74 1018.94 1019.17 1019.71 1020.36 1020.46 1020.67 1020.95 1021.33 1021.57 1021.78 1021.70 1021.91
1020.04 1020.34 1020.39 1019.40 1018.29 1017.89 1017.14 1016.18 1015.89 1015.98 1015.95 1015.92 1015.79 1015.65 1015.46 1015.74 1015.99 1016.21 1016.61 1016.87 1017.12 1017.37 1017.64 1017.95 1018.38 1018.71 1018.84 1018.97 1019.21 1019.32 1019.64 1019.86 1019.89 1020.35 1020.77 1021.08 1021.35 1021.65 1021.93 1022.12 1022.19 1022.18 1022.52 1022.66
1020.71 1021.00 1021.18 1020.15 1018.68 1017.50 1016.46 1015.16 1014.93 1014.94 1015.16 1015.43 1015.57 1015.13 1015.16 1015.63 1016.01 1016.34 1016.62 1016.86 1017.28 1017.77 1018.20 1018.61 1019.02 1019.29 1019.51 1019.85 1019.96 1020.35 1020.57 1020.78 1020.97 1021.20 1021.57 1021.75 1021.96 1022.17 1022.33 1022.43 1022.54 1022.80 1023.02 1023.00
1020.87 1021.44 1021.52 1020.97 1019.32 1017.72 1015.23 1014.47 1014.17 1014.35 1014.46 1014.85 1015.09 1015.11 1015.26 1015.50 1015.84 1016.24 1016.46 1016.97 1017.58 1017.99 1018.55 1019.12 1019.41 1019.76 1020.08 1020.29 1020.56 1020.76 1020.94 1021.11 1021.21 1021.48 1021.75 1021.88 1022.09 1022.44 1022.64 1022.76 1023.02 1023.31 1023.48 1023.68
1020.73 1021.36 1021.78 1021.61 1020.46 1017.70 1014.85 1014.22 1013.91 1013.86 1013.88 1014.02 1014.72 1015.14 1015.45 1015.77 1015.95 1015.97 1016.23 1016.67 1017.16 1017.80 1018.48 1019.10 1019.70 1020.16 1020.50 1020.76 1021.08 1021.25 1021.54 1021.83 1022.08 1022.40 1022.59 1022.68 1022.84 1023.12 1023.29 1023.58 1023.73 1023.80 1023.85 1023.85
1021.06 1021.35 1021.71 1021.98 1020.91 1018.30 1015.23 1013.97 1013.61 1013.72 1013.77 1013.57 1014.24 1015.07 1015.70 1016.17 1016.60 1016.38 1016.16 1016.61 1017.26 1017.75 1018.45 1019.24 1019.88 1020.40 1020.87 1021.33 1021.52 1021.66 1022.16 1022.37 1022.69 1022.80 1022.93 1023.08 1023.34 1023.52 1023.73 1023.92 1024.06 1024.09 1024.00 1023.92
1021.36 1021.75 1021.69 1021.48 1020.47 1017.65 1014.82 1014.05 1013.93 1014.23 1014.06 1013.44 1014.04 1014.73 1015.51 1016.24 1016.11 1016.15 1016.51 1017.09 1017.43 1017.89 1018.62 1019.37 1020.00 1020.64 1021.17 1021.53 1021.80 1022.32 1022.71 1023.00 1023.03 1023.01 1023.28 1023.58 1023.76 1023.96 1024.06 1024.08 1024.08 1024.09 1024.11 1024.05
1019.91 1020.44 1020.96 1020.77 1019.56 1016.95 1014.31 1014.38 1014.20 1013.45 1013.32 1013.40 1013.83 1014.32 1015.07 1015.31 1015.88 1016.43 1016.85 1017.51 1018.05 1018.44 1018.99 1019.52 1020.19 1020.84 1021.22 1021.56 1021.80 1022.57 1022.98 1023.14 1023.25 1023.52 1023.82 1024.07 1024.17 1024.17 1024.19 1024.20 1024.21 1024.19 1024.15 1024.18
1018.84 1017.96 1018.26 1018.21 1016.22 1014.29 1013.82 1013.47 1013.05 1013.18 1013.36 1013.33 1013.54 1013.84 1014.53 1015.40 1015.97 1016.54 1017.18 1017.76 1018.34 1018.82 1019.40 1019.86 1020.35 1021.21 1021.59 1021.88 1022.23 1022.82 1023.28 1023.40 1023.65 1023.93 1024.29 1024.38 1024.41 1024.50 1024.45 1024.37 1024.37 1024.34 1024.31 1024.28
1017.37 1017.09 1017.11 1016.92 1014.13 1013.98 1013.81 1013.12 1012.96 1012.83 1013.05 1012.91 1013.14 1013.57 1014.27 1015.01 1015.75 1016.47 1017.24 1018.04 1018.59 1019.15 1019.77 1020.24 1020.81 1021.50 1022.16 1022.28 1022.62 1022.97 1023.35 1023.58 1023.89 1024.34 1024.64 1024.70 1024.74 1024.76 1024.72 1024.61 1024.51 1024.50 1024.35 1024.09
1016.54 1016.40 1016.04 1015.33 1013.71 1013.54 1012.88 1012.60 1012.20 1012.30 1012.58 1012.81 1013.04 1013.32 1013.82 1014.68 1015.59 1016.19 1017.03 1017.91 1018.52 1019.13 1019.91 1020.50 1021.06 1021.69 1022.42 1022.68 1022.96 1023.22 1023.47 1023.70 1024.21 1024.50 1024.72 1024.87 1024.93 1025.10 1025.07 1024.79 1024.53 1024.22 1023.95 1023.66
1015.08 1014.35 1014.48 1013.49 1011.91 1012.32 1012.12 1011.80 1011.76 1012.04 1012.16 1012.28 1012.78 1013.30 1013.65 1014.23 1014.97 1015.95 1016.81 1017.41 1018.20 1019.03 1019.82 1020.70 1021.45 1021.94 1022.62 1023.04 1023.29 1023.49 1023.57 1023.76 1024.20 1024.52 1024.80 1024.86 1025.04 1025.17 1025.00 1024.93 1024.54 1024.10 1023.71 1023.37
Thickness
5631 5615 5605 5610 5611 5604 5600 5592 5589 5602 5608 5600 5597 5598 5608 5620 5623 5625 5629 5637 5648 5657 5678 5687 5692 5691 5690 5694 5694 5693 5690 5683 5681 5679 5674 5666 5667 5665 5663 5659 5656 5651 5650 5645
5620 5615 5622 5619 5617 5608 5604 5595 5593 5603 5606 5596 5597 5595 5610 5613 5616 5620 5624 5630 5639 5651 5664 5677 5685 5686 5687 5687 5687 5688 5685 5680 5681 5678 5675 5669 5661 5659 5656 5653 5650 5645 5642 5637
5618 5626 5626 5619 5613 5608 5605 5596 5594 5593 5601 5601 5588 5586 5589 5598 5599 5604 5607 5617 5627 5639 5651 5665 5678 5684 5686 5687 5686 5686 5684 5677 5683 5674 5667 5661 5657 5652 5649 5645 5640 5635 5629 5623
5622 5629 5623 5616 5610 5612 5599 5613 5600 5593 5584 5570 5577 5559 5574 5575 5579 5583 5589 5599 5612 5628 5645 5660 5675 5680 5686 5690 5689 5683 5681 5677 5676 5673 5664 5660 5657 5653 5646 5638 5629 5623 5619 5613
5626 5623 5617 5613 5615 5613 5604 5611 5600 5595 5579 5565 5564 5549 5554 5557 5563 5570 5580 5592 5606 5623 5638 5658 5673 5683 5688 5686 5687 5685 5679 5675 5676 5670 5667 5659 5652 5648 5640 5626 5623 5612 5604 5608
5621 5626 5623 5620 5619 5614 5614 5607 5595 5588 5569 5558 5551 5540 5544 5552 5551 5561 5567 5582 5604 5623 5641 5657 5667 5673 5675 5677 5678 5677 5675 5674 5671 5664 5658 5654 5651 5642 5633 5616 5610 5602 5595 5599
5609 5622 5622 5623 5611 5611 5602 5591 5571 5562 5543 5545 5553 5544 5540 5551 5559 5558 5564 5575 5600 5619 5633 5643 5653 5661 5665 5671 5671 5669 5665 5660 5657 5655 5648 5640 5636 5631 5613 5610 5608 5597 5593 5597
5585 5594 5615 5614 5609 5599 5589 5579 5558 5562 5557 5556 5558 5548 5546 5550 5563 5562 5567 5575 5592 5609 5624 5633 5644 5650 5652 5659 5661 5660 5654 5651 5646 5642 5637 5633 5626 5620 5607 5609 5601 5598 5597 5597
5586 5591 5610 5613 5611 5605 5596 5571 5573 5564 5543 5549 5538 5566 5557 5550 5558 5564 5570 5578 5586 5597 5612 5622 5632 5640 5651 5649 5649 5647 5645 5641 5638 5633 5633 5623 5613 5606 5601 5601 5597 5595 5597 5595
5598 5580 5608 5610 5611 5600 5596 5583 5572 5554 5542 5556 5558 5552 5556 5558 5554 5563 5568 5573 5578 5587 5603 5612 5620 5627 5636 5640 5640 5639 5637 5634 5630 5618 5621 5610 5604 5602 5595 5595 5595 5594 5592 5588
5599 5584 5595 5605 5603 5596 5588 5580 5572 5564 5561 5549 5559 5557 5567 5557 5554 5557 5564 5569 5576 5587 5595 5604 5610 5615 5622 5624 5627 5624 5619 5620 5613 5607 5602 5598 5593 5592 5593 5590 5587 5584 5582 5578
5598 5576 5573 5596 5603 5598 5597 5587 5572 5557 5561 5556 5553 5564 5571 5564 5563 5562 5565 5569 5570 5579 5586 5596 5601 5602 5608 5609 5606 5607 5608 5605 5600 5596 5592 5588 5586 5583 5581 5574 5571 5568 5564 5560
5596 5579 5570 5588 5595 5595 5589 5585 5581 5572 5559 5561 5545 5568 5576 5574 5568 5568 5568 5568 5570 5575 5581 5590 5598 5588 5592 5594 5592 5593 5594 5592 5589 5587 5582 5575 5572 5572 5566 5559 5554 5551 5550 5546
5595 5576 5577 5570 5583 5583 5580 5584 5582 5575 5565 5567 5561 5572 5584 5575 5576 5572 5568 5570 5569 5574 5582 5587 5584 5581 5582 5581 5580 5580 5578 5579 5576 5573 5567 5560 5556 5553 5549 5547 5543 5539 5535 5529
5586 5580 5578 5579 5580 5579 5581 5583 5582 5581 5583 5581 5583 5581 5587 5581 5582 5580 5575 5572 5573 5575 5577 5574 5572 5567 5567 5569 5568 5567 5567 5565 5563 5562 5557 5550 5548 5545 5541 5535 5530 5525 5521 5514
5574 5576 5569 5576 5591 5588 5586 5589 5586 5585 5592 5588 5589 5587 5590 5586 5584 5582 5578 5575 5573 5571 5569 5566 5563 5560 5561 5560 5558 5558 5555 5553 5553 5548 5543 5540 5536 5532 5527 5522 5518 5514 5506 5500
5575 5564 5562 5573 5580 5584 5594 5602 5604 5601 5594 5591 5585 5594 5594 5591 5586 5583 5582 5579 5574 5569 5566 5562 5559 5556 5554 5551 5551 5547 5544 5542 5540 5537 5533 5529 5526 5522 5517 5513 5508 5502 5493 5487
5560 5559 5549 5558 5569 5586 5605 5604 5606 5600 5601 5592 5594 5595 5594 5593 5589 5584 5582 5576 5571 5567 5562 5557 5554 5551 5548 5546 5542 5540 5538 5535 5533 5529 5526 5524 5520 5514 5508 5502 5495 5485 5477 5467
5564 5555 5555 5543 5551 5581 5608 5604 5603 5605 5602 5599 5595 5594 5592 5589 5589 5589 5583 5579 5575 5569 5562 5556 5550 5546 5541 5539 5535 5532 5528 5524 5520 5516 5513 5511 5506 5500 5495 5488 5481 5474 5466 5457
5556 5549 5551 5537 5548 5570 5598 5606 5608 5605 5587 5604 5599 5591 5584 5582 5579 5579 5587 5580 5573 5567 5560 5553 5547 5541 5536 5531 5528 5525 5518 5514 5511 5509 5507 5502 5497 5492 5485 5478 5470 5462 5454 5444
5544 5541 5543 5538 5529 5565 5593 5601 5599 5589 5590 5603 5599 5593 5580 5579 5580 5582 5575 5571 5567 5563 5557 5549 5542 5536 5529 5525 5521 5513 5508 5504 5503 5502 5498 5492 5487 5481 5475 5469 5461 5451 5440 5427
5560 5536 5527 5530 5534 5560 5597 5593 5587 5594 5599 5602 5597 5593 5584 5585 5581 5573 5570 5562 5557 5555 5550 5545 5538 5531 5525 5521 5516 5507 5502 5499 5496 5492 5487 5482 5477 5473 5467 5458 5448 5437 5425 5411
5566 5572 5559 5558 5571 5595 5596 5595 5598 5592 5593 5596 5595 5595 5588 5578 5572 5566 5561 5556 5551 5547 5541 5537 5533 5523 5518 5514 5508 5501 5494 5492 5488 5484 5479 5474 5469 5462 5455 5447 5436 5424 5409 5392
5574 5562 5565 5567 5592 5589 5586 5591 5590 5592 5590 5594 5593 5588 5579 5578 5568 5563 5555 5549 5544 5538 5532 5528 5523 5516 5509 5505 5501 5494 5489 5486 5481 5475 5470 5465 5460 5452 5443 5434 5423 5409 5392 5375
5568 5560 5559 5555 5578 5583 5589 5587 5594 5593 5588 5589 5585 5582 5578 5571 5562 5559 5552 5545 5540 5534 5527 5521 5516 5510 5501 5496 5492 5488 5484 5480 5474 5468 5463 5457 5450 5440 5431 5422 5410 5396 5379 5367
5561 5567 5561 5561 5589 5587 5590 5592 5591 5587 5586 5583 5579 5575 5572 5567 5562 5554 5547 5543 5537 5529 5522 5514 5507 5501 5493 5488 5485 5481 5479 5475 5469 5463 5456 5450 5441 5431 5422 5410 5398 5387 5372 5362